COSMOS 1275 DEB, 39935

Orbit data source: Space-Track

COSMOS 1275 DEB, 39935 is space debris in LEO originally from a launch on Thu, 04 Jun 1981 UTC launched from the Plesetsk Missile And Space Complex (PKMTR). Debris objects in space refer to the collection of defunct objects orbiting the Earth. Examples of debris include non-operational satellites, rocket bodies, and fragments generated from explosions, collisions, or faulty payload assembly.

Loading next visibility...
Identifier
39935, 1981-053MV
Orbit
LEO
Country
Flag of CISCIS
Related business
Manufacturer
Unknown
Mission
Spacecraft
Bus & Motor
Unknown
Mass
Unknown
Launch date (UTC)
1981-06-04 (45 years ago)
Launch vehicle
Unknown
Launch site
Plesetsk Missile And Space Complex (PKMTR)
Object type
Payload
Rocket body
Debris
Shape & HBR
Unknown shape, 0.1 m
Radar Cross Section
Small (<0.1 m²)

Expand to show TLE details & history
Last TLE update: 2 days ago

TLE from 2 days ago
0 COSMOS 1275 DEB
1 39935U 81053MV  25353.64243353  .00000841  00000-0  58685-3 0  9992
2 39935  82.8247 299.5515 0034415 300.4421 237.8973 13.97261639587005
Epoch: 2025-12-19T15:25Z
TLE epoch observation values (Epoch: 2025-12-19T15:25:06.256Z)
Latitude
1.87386°
Longitude
159.56002°
Altitude
919.379 km
Speed
7.386 km/s
True Right ascension
07h 57m 16s
True Declination
1° 51' 46"
Sunlit
Object was in full shadow at epoch
Visualization orbit readout
Latitude
Unknown
Longitude
Unknown
Altitude
Unknown
Speed
Unknown
Apparent Right ascension
Unknown
Apparent Declination
Unknown
Sunlit
N/A
Visualization observer readout
Local Sidereal Time
18:02:07
Azimuth
Unknown
Elevation
Unknown
Doppler factor
Unknown
Orbital elements
Apogee altitude
925.465 km
Perigee altitude
875.367 km
Semi-major axis
7,278.553 km
Eccentricity
0.00344
Inclination
82.8247°
RAAN
299.5515°
Arg. of periapsis
300.4421°
True anomaly
237.564°
Mean anomaly
237.8973°
Eccentric anomaly
237.73057°
Mean motion
3.49523 °/min
Orbital period
103 mins
BSTAR
0.00058685
Loading maneuver chart data...
Computing Atmospheric mass density...
Loading historical data...
Loading historical data...
Loading historical data...
Loading historical data...
Loading historical data...
Loading historical data...
Loading historical data...

Documentation

Showing up to 5 results
|